Вернуться в каталог

NOAA 16 DEB

АктивенPO
NORAD 41258·DEBRIS·🇺🇸 United States

Запущен Sep 21, 2000 с Vandenberg Space Force Base

Loading…

Ближайшие Пролёты (ближайшие 24 часа)

TLE

СвежийSource: Space-Track

Эпоха: Sep 13, 2026, 17:12 UTC

1 41258U 00055FJ  26256.71733200  .00007173  00000-0  13632-2 0  9999
2 41258  98.9721 169.7953 0035633 135.3587 225.0492 14.64085935559514

Отслеживайте NOAA 16 DEB в реальном времени с AllMySat

Download on the App Store